Fulton, NY

9:18 AM EST on February 22, 2017 (GMT -0500)
Oswego County

Weather History for KFZY - February, 2013

Change the Weather History Date:

Monday, February 4, 2013

  Actual Average (KSYR) Record (KSYR)
Temperature  
Mean Temperature 27 °F -  
Max Temperature 36 °F 29 °F 60 °F (1991)
Min Temperature 18 °F 13 °F -15 °F (1908)
Degree Days  
Heating Degree Days 38    
Moisture  
Dew Point 13 °F    
Average Humidity 49    
Maximum Humidity 81    
Minimum Humidity 35    
Precipitation  
Precipitation 0.55 in - - ()
Sea Level Pressure  
Sea Level Pressure 29.89 in    
Wind  
Wind Speed 9 mph (West)    
Max Wind Speed 15 mph    
Max Gust Speed 24 mph    
Visibility 2 miles    
Events Snow    
Averages and records for this station are not official NWS values.
T = Trace of Precipitation, MM = Missing Value Source: NWS Daily Summary

Daily Weather History Graph

Daily Weather History Graph

Search for Another Location

Airport or City:

Trip Planner

Search our weather history database for the weather conditions in past years. The results will help you decide how hot, cold, wet, or windy it might be!

Date:

Astronomy

Feb. 04, 2013 Rise Set
Actual Time 7:17 AM EST 5:21 PM EST
Civil Twilight 6:47 AM EST 5:51 PM EST
Nautical Twilight 6:13 AM EST 6:25 PM EST
Astronomical Twilight 5:40 AM EST 6:59 PM EST
Moon 1:53 AM EST (2/4) 11:41 AM EST (2/4)
Length of Visible Light 11h 04m
Length of Day
10h 04m
Last Quarter, 37% of the Moon is Illuminated
Feb 4
Last Quarter
Feb 10
New
Feb 17
First Quarter
Feb 25
Full
Mar 4
Last Quarter

Hourly Weather History & Observations

Time (EST) Temp. Windchill Dew Point Humidity Pressure Visibility Wind Dir Wind Speed Gust Speed Precip Events Conditions
12:31 AM - - - N/A% 29.80 in 2.5 mi WSW 15.0 mph 24.2 mph 0.00 in   Unknown
12:34 AM - - - N/A% 29.81 in 1.0 mi West 13.8 mph 24.2 mph 0.00 in   Unknown
12:41 AM - - - N/A% 29.81 in 0.2 mi West 6.9 mph 19.6 mph 0.00 in   Unknown
12:54 AM - - - N/A% 29.81 in 0.5 mi WNW 5.8 mph - 0.02 in   Unknown
1:01 AM - - - N/A% 29.81 in 1.2 mi SW 10.4 mph - 0.00 in   Unknown
1:05 AM - - - N/A% 29.81 in 0.8 mi WSW 15.0 mph - 0.00 in   Unknown
1:54 AM - - - N/A% 29.81 in 0.2 mi West 11.5 mph - 0.04 in   Unknown
2:03 AM - - - N/A% 29.82 in 0.2 mi WSW 6.9 mph - 0.01 in   Unknown
2:10 AM - - - N/A% 29.82 in 0.2 mi West 9.2 mph - 0.02 in   Unknown
2:54 AM - - - N/A% 29.82 in 0.2 mi WSW 9.2 mph - 0.09 in   Unknown
3:19 AM - - - N/A% 29.82 in 0.5 mi West 5.8 mph - 0.02 in   Unknown
3:27 AM - - - N/A% 29.82 in 1.2 mi West 8.1 mph - 0.03 in   Unknown
3:33 AM - - - N/A% 29.82 in 2.0 mi WSW 5.8 mph - 0.03 in   Unknown
3:36 AM - - - N/A% 29.82 in 3.0 mi WSW 5.8 mph - 0.03 in   Unknown
3:49 AM - - - N/A% 29.82 in 9.0 mi WSW 5.8 mph - 0.03 in   Overcast
3:54 AM - - - N/A% 29.82 in 10.0 mi SW 9.2 mph - 0.03 in   Overcast
4:18 AM - - - N/A% 29.82 in 1.8 mi WSW 12.7 mph - 0.00 in   Unknown
4:30 AM - - - N/A% 29.82 in 3.0 mi WSW 11.5 mph - 0.00 in   Unknown
5:54 AM - - - N/A% 29.86 in 4.0 mi NW 10.4 mph - 0.04 in   Unknown
6:14 AM - - - N/A% 29.86 in 10.0 mi WSW 5.8 mph - 0.01 in   Overcast
6:54 AM 19.0 °F 11.1 °F 14.0 °F 81% 29.87 in 10.0 mi WSW 5.8 mph - 0.01 in   Overcast
7:14 AM 23.0 °F 13.1 °F 15.8 °F 74% 29.87 in 2.5 mi WSW 9.2 mph - 0.00 in Snow Light Snow
7:20 AM 26.6 °F 19.1 °F 15.8 °F 64% 29.87 in 1.0 mi WSW 6.9 mph - 0.00 in Snow Light Snow
7:23 AM 28.4 °F 19.7 °F 15.8 °F 59% 29.88 in 0.8 mi WSW 9.2 mph - 0.00 in Snow Light Snow
7:54 AM 32.0 °F 24.2 °F 15.1 °F 50% 29.88 in 0.2 mi WSW 9.2 mph - 0.01 in Snow Heavy Snow
8:10 AM 30.2 °F 21.9 °F 15.8 °F 55% 29.89 in 0.2 mi WSW 9.2 mph - 0.02 in Snow Heavy Snow
8:54 AM 28.0 °F 18.6 °F 15.1 °F 58% 29.90 in 0.2 mi West 10.4 mph - 0.10 in Snow Heavy Snow
9:22 AM 33.8 °F 28.6 °F 15.8 °F 48% 29.91 in 0.5 mi West 5.8 mph - 0.02 in Snow Snow
9:33 AM 33.8 °F 27.0 °F 15.8 °F 48% 29.90 in 1.2 mi West 8.1 mph - 0.02 in Snow Light Snow
9:40 AM 33.8 °F 25.3 °F 12.2 °F 41% 29.91 in 1.8 mi NW 11.5 mph 16.1 mph 0.02 in Snow Light Snow
9:44 AM 30.2 °F 20.8 °F 10.4 °F 44% 29.91 in 2.0 mi WNW 11.5 mph 16.1 mph 0.02 in Snow Light Snow
9:54 AM 28.9 °F 18.2 °F 9.0 °F 43% 29.91 in 2.5 mi NW 13.8 mph - 0.02 in Snow Light Snow
10:04 AM 28.4 °F 18.0 °F 8.6 °F 43% 29.91 in 1.5 mi NW 12.7 mph 21.9 mph 0.00 in Snow Light Snow
10:11 AM 28.4 °F 19.1 °F 8.6 °F 43% 29.91 in 3.0 mi WNW 10.4 mph - 0.00 in Snow Light Snow
10:20 AM 28.4 °F 19.1 °F 8.6 °F 43% 29.91 in 9.0 mi NW 10.4 mph - 0.00 in   Overcast
10:54 AM 32.0 °F 23.0 °F 7.0 °F 35% 29.91 in 10.0 mi WNW 11.5 mph - 0.00 in   Overcast
11:54 AM 30.0 °F 19.5 °F 8.1 °F 40% 29.91 in 3.0 mi WNW 13.8 mph - 0.00 in Snow Light Snow
12:11 PM 30.2 °F 20.8 °F 8.6 °F 40% 29.91 in 2.0 mi NW 11.5 mph - 0.00 in Snow Light Snow
12:26 PM 30.2 °F 20.8 °F 10.4 °F 44% 29.91 in 1.8 mi NW 11.5 mph - 0.00 in Snow Light Snow
12:50 PM 30.2 °F 20.8 °F 10.4 °F 44% 29.90 in 1.0 mi WNW 11.5 mph - 0.00 in Snow Light Snow
12:54 PM 30.9 °F 22.2 °F 10.0 °F 42% 29.90 in 1.2 mi NW 10.4 mph - 0.00 in Snow Light Snow
1:18 PM 35.6 °F 28.6 °F 10.4 °F 35% 29.90 in 1.0 mi NW 9.2 mph - 0.00 in Snow Light Snow
1:34 PM 30.2 °F 21.9 °F 10.4 °F 44% 29.90 in 1.5 mi WNW 9.2 mph - 0.00 in Snow Light Snow
1:47 PM 32.0 °F 24.2 °F 10.4 °F 41% 29.90 in 3.0 mi WNW 9.2 mph - 0.00 in Snow Light Snow
1:54 PM 32.0 °F 22.1 °F 10.9 °F 42% 29.90 in 1.5 mi WNW 13.8 mph - 0.00 in Snow Light Snow
1:59 PM 30.2 °F 21.3 °F 10.4 °F 44% 29.90 in 0.8 mi WNW 10.4 mph - 0.00 in Snow Light Snow
2:08 PM 32.0 °F 25.6 °F 10.4 °F 41% 29.90 in 1.2 mi West 6.9 mph - 0.01 in Snow Light Snow
2:54 PM 34.0 °F 27.2 °F 12.0 °F 40% 29.90 in 1.2 mi West 8.1 mph - 0.01 in Snow Light Snow
2:58 PM 33.8 °F 27.7 °F 12.2 °F 41% 29.90 in 0.8 mi West 6.9 mph - 0.00 in Snow Light Snow
3:08 PM 33.8 °F 26.4 °F 12.2 °F 41% 29.90 in 0.5 mi WNW 9.2 mph - 0.00 in Snow Snow
3:54 PM 35.1 °F 30.1 °F 15.1 °F 44% 29.91 in 0.8 mi WSW 5.8 mph - 0.00 in Snow Light Snow
4:28 PM 33.8 °F 29.6 °F 15.8 °F 48% 29.90 in 0.2 mi West 4.6 mph - 0.02 in Snow Heavy Snow
4:37 PM 35.6 °F 30.7 °F 15.8 °F 44% 29.90 in 0.8 mi WSW 5.8 mph - 0.02 in Snow Light Snow
4:54 PM 36.0 °F 31.1 °F 15.1 °F 43% 29.90 in 0.2 mi WSW 5.8 mph - 0.03 in Snow Heavy Snow
5:08 PM 35.6 °F 31.7 °F 15.8 °F 44% 29.90 in 0.2 mi WSW 4.6 mph - 0.01 in Snow Heavy Snow
5:54 PM 36.0 °F 30.3 °F 16.0 °F 44% 29.91 in 0.5 mi WSW 6.9 mph - 0.05 in Snow Snow
6:52 PM 35.6 °F 29.9 °F 15.8 °F 44% 29.91 in 0.5 mi WSW 6.9 mph - 0.06 in Snow Snow
6:54 PM 34.0 °F 28.0 °F 15.1 °F 46% 29.93 in 0.5 mi WSW 6.9 mph - 0.06 in Snow Snow
6:58 PM 33.8 °F 28.6 °F 15.8 °F 48% 29.91 in 0.5 mi West 5.8 mph - 0.00 in Snow Snow
7:05 PM 30.2 °F 25.4 °F 15.8 °F 55% 29.92 in 1.0 mi WSW 4.6 mph - 0.00 in Snow Light Snow
7:12 PM 33.8 °F 29.6 °F 15.8 °F 48% 29.92 in 1.5 mi West 4.6 mph - 0.00 in Snow Light Snow
7:20 PM 33.8 °F 29.6 °F 15.8 °F 48% 29.91 in 0.8 mi WSW 4.6 mph - 0.00 in Snow Light Snow
7:31 PM 33.8 °F - 15.8 °F 48% 29.92 in 1.2 mi Calm Calm - 0.01 in Snow Light Snow
7:45 PM 30.2 °F 26.7 °F 15.8 °F 55% 29.92 in 1.0 mi SW 3.5 mph - 0.01 in Snow Light Snow
7:54 PM 30.9 °F - 15.1 °F 52% 29.94 in 0.5 mi Calm Calm - 0.02 in Snow Snow
8:20 PM 32.0 °F 24.2 °F 14.0 °F 48% 29.92 in 1.0 mi West 9.2 mph - 0.01 in Snow Light Snow
8:30 PM 30.2 °F 23.4 °F 14.0 °F 51% 29.92 in 0.8 mi West 6.9 mph - 0.01 in Snow Light Snow
8:38 PM 30.2 °F 24.3 °F 14.0 °F 51% 29.92 in 1.0 mi West 5.8 mph - 0.02 in Snow Light Snow
8:49 PM 28.4 °F 23.3 °F 14.0 °F 55% 29.92 in 1.5 mi WNW 4.6 mph - 0.02 in Snow Light Snow
8:54 PM 28.9 °F 25.2 °F 14.0 °F 54% 29.94 in 1.0 mi West 3.5 mph - 0.02 in Snow Light Snow
9:04 PM 28.4 °F 23.3 °F 14.0 °F 55% 29.92 in 1.8 mi West 4.6 mph - 0.00 in Snow Light Snow
9:10 PM 28.4 °F 23.3 °F 14.0 °F 55% 29.92 in 3.0 mi West 4.6 mph - 0.00 in Snow Light Snow
9:33 PM 33.8 °F 29.6 °F 12.2 °F 41% 29.93 in 4.0 mi West 4.6 mph - 0.00 in Snow Light Snow
9:54 PM 25.0 °F 20.7 °F 12.9 °F 60% 29.94 in 5.0 mi WSW 3.5 mph - 0.00 in Snow Light Snow
10:54 PM 18.0 °F - 12.0 °F 78% 29.95 in 4.0 mi Calm Calm - 0.00 in Snow Light Snow
11:54 PM 18.0 °F - 12.0 °F 78% 29.96 in 9.0 mi Calm Calm - 0.00 in   Overcast